Regional Weather Roundup
Issued by NWS

Home | Current Version | Previous Version | Graphics & Text | Print | Product List | Glossary On
Versions: 1 2 3 4 5 6 7 8 9 10 11 12 13 14 15 16 17 18 19 20 21 22 23 24 25 26 27 28 29 30 31 32 33 34 35 36 37 38 39 40 41 42 43 44 45 46 47 48 49 50
000
ASUS43 KTOP 261159
RWRKS

WEATHER ROUNDUP FOR KANSAS
NATIONAL WEATHER SERVICE GOODLAND KS
700 AM CDT THU MAY 26 2016

NOTE:  "FAIR" INDICATES FEW OR NO CLOUDS BELOW 12,000 FEET WITH NO
SIGNIFICANT WEATHER AND/OR OBSTRUCTIONS TO VISIBILITY.

KSZ001>006-013>018-027>032-041>047-261300-
NORTHWEST KANSAS

CITY           SKY/WX    TMP DP  RH WIND       PRES   REMARKS
GOODLAND       CLEAR     51  46  83 NE6       29.89F
6HR MIN TEMP:  47; 6HR MAX TEMP:  55;

HAYS           CLOUDY    54  50  87 NE8       29.83R
HILL CITY      CLOUDY    56  51  84 N15       29.86R
6HR MIN TEMP:  51; 6HR MAX TEMP:  57;

RUSSELL        PTCLDY    58  56  93 NE9       29.82R
6HR MIN TEMP:  58; 6HR MAX TEMP:  64;

$$

KSZ061>065-074>080-084>089-261300-
SOUTHWEST KANSAS

CITY           SKY/WX    TMP DP  RH WIND       PRES   REMARKS
DODGE CITY     CLOUDY    65  65 100 S10       29.80R FOG
6HR MIN TEMP:  64; 6HR MAX TEMP:  68; 6HR PCP: TRACE;

ELKHART          N/A     53  33  46 SW8         N/A
GARDEN CITY    FOG       62  62 100 CALM      29.81R VSB 1/4
6HR MIN TEMP:  62; 6HR MAX TEMP:  67;

GREAT BEND     CLOUDY    68  63  83 E8        29.80S VSB 1/2
LIBERAL        PTCLDY    54  41  62 W5        29.82S
$$

KSZ066>073-081>083-090>101-261300-
SOUTHEAST KANSAS

CITY           SKY/WX    TMP DP  RH WIND       PRES   REMARKS
CHANUTE        CLOUDY    76  72  87 SE5       29.90R FOG
6HR MIN TEMP:  74; 6HR MAX TEMP:  77;

COFFEYVILLE    CLOUDY    75  73  93 SE5       29.88R FOG
6HR MIN TEMP:  75; 6HR MAX TEMP:  78;

HUTCHINSON     CLEAR     71  67  87 SE12      29.81S
6HR MIN TEMP:  69; 6HR MAX TEMP:  74;

MEDICINE LODGE   N/A     74  71  91 SE3       29.79R
NEWTON         PTCLDY    72  66  83 SE10      29.86F
PARSONS        CLOUDY    76  74  93 S6        29.90R FOG
6HR MIN TEMP:  76; 6HR MAX TEMP:  78;

WICHITA INTL   CLOUDY    76  72  87 S6        29.83S
6HR MIN TEMP:  70; 6HR MAX TEMP:  77;

WICHITA JABRA  CLOUDY    73  73 100 SE6       29.85R FOG
6HR MIN TEMP:  72; 6HR MAX TEMP:  75;

WINFIELD       CLOUDY    74  72  93 S10       29.84R FOG
6HR MIN TEMP:  73; 6HR MAX TEMP:  77;

$$

KSZ007>012-019>026-033>040-048>060-102>105-261300-
NORTHEAST KANSAS

CITY           SKY/WX    TMP DP  RH WIND       PRES   REMARKS
CONCORDIA      MOCLDY    60  55  83 E7        29.88R
6HR MIN TEMP:  56; 6HR MAX TEMP:  67;

EMPORIA        CLOUDY    72  71  97 SE7       29.86S FOG
6HR MIN TEMP:  71; 6HR MAX TEMP:  74;

LAWRENCE       PTCLDY    66  63  90 SE6       29.88F
6HR MIN TEMP:  64; 6HR MAX TEMP:  72; 6HR PCP: TRACE;

MANHATTAN      CLOUDY    69  61  75 E7        29.85R
6HR MIN TEMP:  64; 6HR MAX TEMP:  70;

OLATHE IND     CLOUDY    64  61  90 SE9       29.90R
6HR MIN TEMP:  64; 6HR MAX TEMP:  80; 6HR PCP:  0.38;

OLATHE EXE     CLOUDY    62  60  93 S8        29.90R
6HR MIN TEMP:  60; 6HR MAX TEMP:  75; 6HR PCP:  0.53;

SALINA         PTCLDY    65  62  90 N9        29.83R
6HR MIN TEMP:  62; 6HR MAX TEMP:  70;

TOPEKA BILLARD   N/A     68  62  81 E3        29.87S
6HR MIN TEMP:  66; 6HR MAX TEMP:  73; 6HR PCP:  0.08;

TOPEKA FORBES  MOCLDY    67  62  84 SE6       29.87S
6HR MIN TEMP:  67; 6HR MAX TEMP:  70; 6HR PCP: TRACE;

$$



USA.gov is the U.S. government's official web portal to all federal, state and local government web resources and services.